Dewpoint
45 46 45 45 45 45 45 45 47 47 47 47 48 49 50 52 53 52 53 52 53 52
42 41 42 43 43 44 44 46 48 48 49 47 47 48 49 51 51 52 53 52 52 52
41 42 42 43 42 43 44 47 47 47 48 48 47 48 48 49 51 51 53 53 52 52
43 43 44 44 45 46 45 45 45 45 46 46 47 48 48 49 50 50 51 52 52 52
45 45 45 44 43 43 43 44 44 45 47 47 47 47 48 48 49 49 51 51 51 51
43 43 42 41 41 41 41 42 43 44 47 49 48 47 48 48 49 50 50 50 50 49
42 42 41 40 40 40 40 41 42 43 48 49 49 48 48 49 49 49 49 49 50 48
41 40 39 39 39 39 40 41 42 43 45 45 48 49 48 47 46 44 43 44 45 45
39 39 38 37 38 38 39 40 41 42 43 44 46 47 47 44 44 43 43 41 41 42
38 37 37 37 37 37 38 39 39 40 41 42 43 44 44 43 41 40 40 40 40 40
37 37 36 36 36 37 38 38 38 39 39 40 41 42 41 40 38 37 36 37 36 35
37 36 36 36 36 36 37 37 37 38 38 38 39 40 39 37 35 32 31 31 32 32
37 36 35 35 35 36 36 36 36 36 36 38 37 38 36 33 31 30 30 31 32 34
37 36 35 35 36 35 35 35 34 34 34 34 34 36 36 34 30 29 29 30 31 32
Lifted_Index
10 10 10 10 9 9 9 8 7 7 6 6 6 6 6 5 4 3 3 2 2 2
10 10 10 9 9 9 9 8 7 7 7 6 6 6 6 5 4 3 3 2 2 2
9 9 9 9 9 9 8 8 7 7 7 6 6 6 5 5 4 3 2 2 1 1
9 9 9 9 9 8 8 8 7 7 6 6 5 5 5 4 4 3 2 1 1 0
9 9 8 8 8 8 7 7 7 6 5 4 4 4 4 4 3 3 2 1 0 0
9 9 8 8 8 7 6 6 6 5 4 3 3 3 3 3 3 2 1 0 -0 -0
9 8 8 8 7 6 6 5 5 4 4 3 3 3 3 3 2 2 1 0 0 -0
8 8 8 7 7 6 5 5 4 4 4 3 3 3 3 2 2 1 1 1 1 1
8 8 8 8 7 6 5 5 5 5 4 4 3 3 2 2 2 1 1 1 2 2
8 8 8 8 7 6 6 6 5 5 5 4 3 2 2 2 2 2 2 2 3 3
8 8 8 7 7 6 6 6 6 5 5 4 3 3 3 3 2 2 2 2 3 3
8 8 8 7 7 6 6 6 6 5 5 4 4 3 3 3 3 3 3 3 4 5
9 8 8 7 7 7 6 6 6 6 5 5 5 5 4 4 3 3 4 4 6 7
8 8 8 8 7 7 7 7 6 6 6 6 6 5 5 4 4 4 4 5 6 8